AUA2AY LOWW-LOWI

Flight info

Callsign AUA2AY
Flight time 0h 52m
Altitude 30000
Route SOVIL DCT SITNI DCT BAGSI DCT NANIT NANIT2A
Aircraft A20N/M-SDE2E3FGHIRWXY/LB1

Departure

Time 2026-05-04 12:43
Airport Vienna International Airport (LOWW)

Arrival

Time 2026-05-04 13:36
Airport Innsbruck Airport (LOWI)
Time Latitude Longitude Altitude Speed Heading
2026-05-04 12:06 48.11542 16.56795 611 ft 0 kts 205°
2026-05-04 12:32 48.11546 16.56797 626 ft 3 kts 205°
2026-05-04 12:32 48.11580 16.56822 635 ft 3 kts 195°
2026-05-04 12:32 48.11599 16.56824 601 ft 3 kts 155°
2026-05-04 12:33 48.11614 16.56807 621 ft 3 kts 123°
2026-05-04 12:33 48.11622 16.56788 618 ft 1 kts 116°
2026-05-04 12:37 48.11622 16.56789 618 ft 0 kts 116°
2026-05-04 12:37 48.11618 16.56801 620 ft 2 kts 116°
2026-05-04 12:37 48.11607 16.56833 619 ft 5 kts 116°
2026-05-04 12:37 48.11590 16.56886 619 ft 7 kts 116°
2026-05-04 12:38 48.11565 16.56959 617 ft 9 kts 115°
2026-05-04 12:38 48.11535 16.57055 616 ft 11 kts 116°
2026-05-04 12:38 48.11501 16.57159 622 ft 11 kts 115°
2026-05-04 12:38 48.11465 16.57269 621 ft 13 kts 116°
2026-05-04 12:39 48.11432 16.57371 613 ft 7 kts 116°
2026-05-04 12:39 48.11436 16.57418 615 ft 6 kts 45°
2026-05-04 12:39 48.11496 16.57465 608 ft 14 kts 27°
2026-05-04 12:39 48.11593 16.57545 616 ft 18 kts 26°
2026-05-04 12:40 48.11674 16.57532 612 ft 8 kts
2026-05-04 12:40 48.11713 16.57613 608 ft 10 kts 69°
2026-05-04 12:40 48.11781 16.57623 604 ft 13 kts 339°
2026-05-04 12:40 48.11888 16.57577 601 ft 20 kts 345°
2026-05-04 12:41 48.11976 16.57573 598 ft 11 kts 43°
2026-05-04 12:41 48.11978 16.57698 596 ft 5 kts 105°
2026-05-04 12:41 48.11967 16.57753 597 ft 6 kts 105°
2026-05-04 12:41 48.11950 16.57813 598 ft 6 kts 124°
2026-05-04 12:42 48.11920 16.57844 600 ft 5 kts 160°
2026-05-04 12:42 48.11910 16.57848 600 ft 0 kts 165°
2026-05-04 12:42 48.11908 16.57849 600 ft 1 kts 165°
2026-05-04 12:43 48.11848 16.57873 601 ft 32 kts 164°
2026-05-04 12:43 48.11401 16.58062 617 ft 98 kts 164°
2026-05-04 12:43 48.10591 16.58405 682 ft 135 kts 163°
2026-05-04 12:43 48.09711 16.58768 1326 ft 130 kts 164°
2026-05-04 12:44 48.08832 16.59123 1886 ft 130 kts 167°
2026-05-04 12:44 48.07956 16.59484 2444 ft 132 kts 167°
2026-05-04 12:44 48.07039 16.59875 2964 ft 144 kts 166°
2026-05-04 12:44 48.06036 16.60278 3584 ft 154 kts 174°
2026-05-04 12:45 48.04973 16.59990 4267 ft 165 kts 209°
2026-05-04 12:45 48.04125 16.58748 4992 ft 180 kts 232°
2026-05-04 12:45 48.03397 16.57131 5701 ft 197 kts 236°
2026-05-04 12:45 48.02626 16.55337 6400 ft 212 kts 237°
2026-05-04 12:46 48.01836 16.53387 7080 ft 228 kts 237°
2026-05-04 12:46 48.01004 16.51309 7817 ft 243 kts 236°
2026-05-04 12:46 48.00105 16.49159 8768 ft 242 kts 236°
2026-05-04 12:46 47.99209 16.47001 9747 ft 239 kts 236°
2026-05-04 12:47 47.98346 16.45021 10497 ft 223 kts 238°
2026-05-04 12:47 47.97786 16.42845 11246 ft 227 kts 256°
2026-05-04 12:47 47.97732 16.40456 12023 ft 238 kts 272°
2026-05-04 12:47 47.97972 16.37955 12844 ft 248 kts 274°
2026-05-04 12:48 47.98221 16.35366 13713 ft 255 kts 274°
2026-05-04 12:48 47.98407 16.32684 14431 ft 266 kts 271°
2026-05-04 12:48 47.98510 16.29835 14930 ft 285 kts 269°
2026-05-04 12:48 47.98576 16.26746 15250 ft 310 kts 269°
2026-05-04 12:49 47.98661 16.23403 15541 ft 335 kts 270°
2026-05-04 12:49 47.98774 16.19825 15909 ft 354 kts 270°
2026-05-04 12:49 47.98910 16.16127 16703 ft 358 kts 271°
2026-05-04 12:49 47.99060 16.12394 17541 ft 363 kts 273°
2026-05-04 12:50 47.99346 16.08666 18331 ft 368 kts 274°
2026-05-04 12:50 47.99647 16.04858 19086 ft 370 kts 275°
2026-05-04 12:50 47.99947 16.01011 19792 ft 374 kts 275°
2026-05-04 12:50 48.00246 15.97138 20535 ft 378 kts 275°
2026-05-04 12:51 48.00545 15.93223 21224 ft 382 kts 275°
2026-05-04 12:51 48.00844 15.89262 21932 ft 385 kts 275°
2026-05-04 12:51 48.01146 15.85246 22475 ft 393 kts 275°
2026-05-04 12:51 48.01452 15.81158 23182 ft 397 kts 275°
2026-05-04 12:52 48.01760 15.77034 23809 ft 401 kts 276°
2026-05-04 12:52 48.02069 15.72886 24444 ft 403 kts 276°
2026-05-04 12:52 48.02378 15.68702 24969 ft 407 kts 276°
2026-05-04 12:52 48.02689 15.64486 25534 ft 410 kts 276°
2026-05-04 12:53 48.03001 15.60227 26069 ft 414 kts 276°
2026-05-04 12:53 48.03313 15.55939 26602 ft 417 kts 276°
2026-05-04 12:53 48.03626 15.51618 27131 ft 420 kts 276°
2026-05-04 12:53 48.03940 15.47272 27646 ft 422 kts 276°
2026-05-04 12:54 48.04254 15.42898 28213 ft 424 kts 276°
2026-05-04 12:54 48.04565 15.38500 28664 ft 427 kts 275°
2026-05-04 12:54 48.04694 15.34042 29100 ft 431 kts 271°
2026-05-04 12:54 48.04759 15.29565 29559 ft 433 kts 272°
2026-05-04 12:55 48.04831 15.25108 29907 ft 436 kts 272°
2026-05-04 12:55 48.04975 15.16035 29968 ft 436 kts 272°
2026-05-04 12:56 48.05109 15.06982 29965 ft 436 kts 272°
2026-05-04 12:56 48.05235 14.97939 29963 ft 434 kts 271°
2026-05-04 12:57 48.05353 14.88900 29962 ft 434 kts 271°
2026-05-04 12:57 48.05459 14.79872 29962 ft 434 kts 271°
2026-05-04 12:58 48.05532 14.70843 29958 ft 434 kts 271°
2026-05-04 12:58 48.05595 14.61866 29958 ft 435 kts 271°
2026-05-04 12:59 48.05656 14.52834 29962 ft 434 kts 271°
2026-05-04 12:59 48.05710 14.43811 29962 ft 434 kts 270°
2026-05-04 13:00 48.05736 14.34801 29961 ft 434 kts 268°
2026-05-04 13:00 48.04620 14.25959 29964 ft 435 kts 251°
2026-05-04 13:01 48.02063 14.17739 29948 ft 436 kts 245°
2026-05-04 13:01 47.99394 14.09679 29948 ft 436 kts 244°
2026-05-04 13:02 47.96700 14.01562 29954 ft 436 kts 244°
2026-05-04 13:02 47.93998 13.93457 29958 ft 436 kts 244°
2026-05-04 13:03 47.91291 13.85364 29943 ft 436 kts 244°
2026-05-04 13:03 47.88581 13.77289 29967 ft 435 kts 244°
2026-05-04 13:04 47.85863 13.69215 29962 ft 436 kts 244°
2026-05-04 13:04 47.83140 13.61147 29960 ft 436 kts 244°
2026-05-04 13:05 47.80417 13.53102 29717 ft 434 kts 244°
2026-05-04 13:05 47.79077 13.49154 29439 ft 432 kts 244°
2026-05-04 13:05 47.77723 13.45173 29158 ft 430 kts 244°
2026-05-04 13:05 47.76373 13.41207 28886 ft 429 kts 243°
2026-05-04 13:06 47.75028 13.37264 28618 ft 427 kts 243°
2026-05-04 13:06 47.73686 13.33334 28339 ft 425 kts 243°
2026-05-04 13:06 47.72350 13.29431 28067 ft 423 kts 243°
2026-05-04 13:06 47.71014 13.25529 27807 ft 422 kts 243°
2026-05-04 13:07 47.69684 13.21654 27545 ft 420 kts 243°
2026-05-04 13:07 47.68805 13.19096 27354 ft 419 kts 243°
2026-05-04 13:07 47.67051 13.13997 27017 ft 418 kts 243°
2026-05-04 13:07 47.65727 13.10154 26755 ft 417 kts 243°
2026-05-04 13:08 47.64412 13.06341 26501 ft 412 kts 243°
2026-05-04 13:08 47.63551 13.03846 26331 ft 409 kts 243°
2026-05-04 13:08 47.62252 13.00091 26082 ft 410 kts 243°
2026-05-04 13:08 47.60949 12.96332 25835 ft 408 kts 243°
2026-05-04 13:09 47.59651 12.92591 25593 ft 406 kts 242°
2026-05-04 13:09 47.58360 12.88878 25348 ft 405 kts 242°
2026-05-04 13:09 47.57072 12.85179 25114 ft 405 kts 242°
2026-05-04 13:09 47.55781 12.81477 24876 ft 403 kts 242°
2026-05-04 13:10 47.54501 12.77807 24634 ft 401 kts 242°
2026-05-04 13:10 47.53221 12.74143 24402 ft 401 kts 242°
2026-05-04 13:10 47.51939 12.70479 24165 ft 399 kts 242°
2026-05-04 13:10 47.50667 12.66851 23940 ft 396 kts 242°
2026-05-04 13:11 47.49401 12.63244 23721 ft 395 kts 242°
2026-05-04 13:11 47.48146 12.59671 23484 ft 397 kts 242°
2026-05-04 13:11 47.46879 12.56068 23205 ft 394 kts 242°
2026-05-04 13:11 47.45622 12.52497 22933 ft 389 kts 242°
2026-05-04 13:12 47.44373 12.48956 22679 ft 389 kts 242°
2026-05-04 13:12 47.43117 12.45403 22413 ft 390 kts 242°
2026-05-04 13:12 47.41865 12.41865 22141 ft 387 kts 242°
2026-05-04 13:12 47.40659 12.38334 21887 ft 384 kts 246°
2026-05-04 13:13 47.39896 12.34561 21619 ft 386 kts 259°
2026-05-04 13:13 47.39723 12.30599 21367 ft 389 kts 271°
2026-05-04 13:13 47.40048 12.26645 21111 ft 387 kts 276°
2026-05-04 13:13 47.40430 12.22722 20905 ft 386 kts 276°
2026-05-04 13:14 47.40805 12.18805 20792 ft 385 kts 276°
2026-05-04 13:14 47.41175 12.14872 20696 ft 388 kts 276°
2026-05-04 13:14 47.41543 12.10938 20592 ft 384 kts 276°
2026-05-04 13:14 47.41904 12.07035 20498 ft 385 kts 276°
2026-05-04 13:15 47.42261 12.03167 20390 ft 384 kts 275°
2026-05-04 13:15 47.42621 11.99255 20291 ft 384 kts 276°
2026-05-04 13:15 47.42820 11.95345 20197 ft 380 kts 264°
2026-05-04 13:15 47.42510 11.91477 20108 ft 379 kts 259°
2026-05-04 13:16 47.42089 11.87631 19988 ft 378 kts 259°
2026-05-04 13:16 47.41663 11.83802 19905 ft 377 kts 259°
2026-05-04 13:16 47.41255 11.79978 19810 ft 377 kts 259°
2026-05-04 13:16 47.40870 11.76198 19717 ft 376 kts 259°
2026-05-04 13:17 47.40486 11.72374 19605 ft 377 kts 259°
2026-05-04 13:17 47.40110 11.68558 19522 ft 374 kts 260°
2026-05-04 13:17 47.39738 11.64754 19433 ft 374 kts 259°
2026-05-04 13:17 47.39364 11.60962 19336 ft 373 kts 259°
2026-05-04 13:18 47.38988 11.57190 19227 ft 369 kts 259°
2026-05-04 13:18 47.38609 11.53429 19148 ft 372 kts 259°
2026-05-04 13:18 47.38226 11.49620 19059 ft 374 kts 259°
2026-05-04 13:18 47.37848 11.45834 18967 ft 371 kts 259°
2026-05-04 13:19 47.37471 11.42071 18869 ft 371 kts 259°
2026-05-04 13:19 47.37098 11.38377 18758 ft 367 kts 259°
2026-05-04 13:19 47.36717 11.34634 18686 ft 371 kts 258°
2026-05-04 13:19 47.36332 11.30856 18587 ft 372 kts 259°
2026-05-04 13:20 47.35952 11.27108 18501 ft 367 kts 259°
2026-05-04 13:20 47.35568 11.23373 18405 ft 369 kts 259°
2026-05-04 13:20 47.35184 11.19638 18312 ft 368 kts 259°
2026-05-04 13:20 47.34799 11.15906 18097 ft 368 kts 259°
2026-05-04 13:21 47.34414 11.12176 17848 ft 366 kts 259°
2026-05-04 13:21 47.34029 11.08463 17521 ft 365 kts 259°
2026-05-04 13:21 47.33646 11.04781 17150 ft 361 kts 259°
2026-05-04 13:21 47.33272 11.01200 16888 ft 356 kts 259°
2026-05-04 13:22 47.32892 10.97582 16690 ft 359 kts 259°
2026-05-04 13:22 47.32510 10.93955 16485 ft 357 kts 259°
2026-05-04 13:22 47.32130 10.90348 16282 ft 356 kts 259°
2026-05-04 13:22 47.31751 10.86747 16027 ft 355 kts 259°
2026-05-04 13:23 47.31761 10.83112 15763 ft 358 kts 278°
2026-05-04 13:23 47.32657 10.79678 15483 ft 363 kts 298°
2026-05-04 13:23 47.34100 10.76611 15227 ft 363 kts 299°
2026-05-04 13:23 47.35357 10.73411 15040 ft 359 kts 294°
2026-05-04 13:24 47.36515 10.70146 14989 ft 358 kts 290°
2026-05-04 13:24 47.37161 10.66662 15006 ft 352 kts 275°
2026-05-04 13:24 47.37465 10.63070 15000 ft 353 kts 271°
2026-05-04 13:25 47.36185 10.56431 15003 ft 341 kts 230°
2026-05-04 13:25 47.34417 10.54152 15001 ft 338 kts 209°
2026-05-04 13:25 47.32207 10.53033 14999 ft 339 kts 189°
2026-05-04 13:25 47.29858 10.53177 14736 ft 341 kts 168°
2026-05-04 13:26 47.27716 10.54601 14345 ft 346 kts 147°
2026-05-04 13:26 47.26009 10.57187 13860 ft 352 kts 127°
2026-05-04 13:26 47.25061 10.60499 13311 ft 354 kts 106°
2026-05-04 13:26 47.24967 10.64151 12604 ft 363 kts 83°
2026-05-04 13:27 47.25775 10.67617 12113 ft 363 kts 62°
2026-05-04 13:27 47.27377 10.70477 11566 ft 364 kts 41°
2026-05-04 13:27 47.29394 10.72725 10947 ft 362 kts 43°
2026-05-04 13:27 47.30905 10.75600 10527 ft 351 kts 63°
2026-05-04 13:28 47.31936 10.78806 10116 ft 341 kts 76°
2026-05-04 13:28 47.32248 10.82147 9949 ft 320 kts 95°
2026-05-04 13:28 47.32081 10.85336 9828 ft 305 kts 97°
2026-05-04 13:28 47.31902 10.88392 9411 ft 295 kts 97°
2026-05-04 13:29 47.31716 10.91400 8807 ft 293 kts 97°
2026-05-04 13:29 47.31525 10.94371 8200 ft 290 kts 97°
2026-05-04 13:29 47.31341 10.97219 7955 ft 274 kts 98°
2026-05-04 13:29 47.31167 10.99905 7773 ft 250 kts 98°
2026-05-04 13:30 47.31010 11.02311 7538 ft 222 kts 98°
2026-05-04 13:30 47.30865 11.04473 7203 ft 206 kts 98°
2026-05-04 13:30 47.30737 11.06422 7079 ft 176 kts 98°
2026-05-04 13:30 47.30623 11.08104 6939 ft 156 kts 104°
2026-05-04 13:31 47.30299 11.09559 6667 ft 145 kts 122°
2026-05-04 13:31 47.29843 11.10861 6377 ft 143 kts 122°
2026-05-04 13:31 47.29398 11.12175 6058 ft 142 kts 120°
2026-05-04 13:31 47.28972 11.13474 5775 ft 143 kts 120°
2026-05-04 13:32 47.28537 11.14792 5503 ft 142 kts 120°
2026-05-04 13:32 47.28112 11.16072 5270 ft 136 kts 118°
2026-05-04 13:32 47.27704 11.17286 5128 ft 129 kts 117°
2026-05-04 13:32 47.27322 11.18433 4813 ft 125 kts 116°
2026-05-04 13:33 47.26929 11.19634 4409 ft 132 kts 116°
2026-05-04 13:33 47.26527 11.20881 3907 ft 139 kts 117°
2026-05-04 13:33 47.26107 11.22175 3574 ft 135 kts 115°
2026-05-04 13:33 47.25690 11.23432 3191 ft 138 kts 118°
2026-05-04 13:34 47.25319 11.24675 3003 ft 127 kts 112°
2026-05-04 13:34 47.25162 11.25893 3049 ft 121 kts 96°
2026-05-04 13:34 47.25281 11.27200 2852 ft 140 kts 83°
2026-05-04 13:34 47.25419 11.28627 2781 ft 142 kts 87°
2026-05-04 13:35 47.25568 11.30084 2475 ft 146 kts 84°
2026-05-04 13:35 47.25876 11.32967 1957 ft 136 kts 86°
2026-05-04 13:35 47.25996 11.34176 1894 ft 85 kts 81°
2026-05-04 13:36 47.26055 11.34719 1894 ft 44 kts 83°
2026-05-04 13:36 47.26085 11.34989 1903 ft 20 kts 81°
2026-05-04 13:36 47.26101 11.35141 1907 ft 14 kts 82°
2026-05-04 13:36 47.26102 11.35239 1899 ft 7 kts 124°
2026-05-04 13:37 47.26048 11.35261 1901 ft 9 kts 171°
2026-05-04 13:37 47.25981 11.35277 1900 ft 11 kts 171°
2026-05-04 13:37 47.25947 11.35285 1898 ft 2 kts 171°
2026-05-04 13:37 47.25932 11.35289 1907 ft 5 kts 171°
2026-05-04 13:38 47.25898 11.35243 1907 ft 8 kts 262°
2026-05-04 13:38 47.25891 11.35168 1900 ft 9 kts 262°
2026-05-04 13:38 47.25880 11.35073 1906 ft 5 kts 260°
2026-05-04 13:38 47.25877 11.35046 1906 ft 0 kts 261°
2026-05-04 13:39 47.25875 11.35032 1906 ft 5 kts 261°
2026-05-04 13:39 47.25869 11.34974 1902 ft 3 kts 261°
2026-05-04 13:39 47.25866 11.34945 1900 ft 0 kts 261°
2026-05-04 13:42 47.25864 11.34924 1902 ft 6 kts 260°
2026-05-04 13:42 47.25851 11.34873 1906 ft 6 kts 224°
2026-05-04 13:42 47.25817 11.34868 1893 ft 6 kts 171°
2026-05-04 13:42 47.25804 11.34871 1894 ft 0 kts 171°